Hourly Data Report for September 12, 2017

All times are specified in Local Standard Time (LST). Add 1 hour to adjust for Daylight Saving Time where and when it is observed.

DOAKTOWN AUTO RCS
NEW BRUNSWICK

46°35'06.090" N
66°00'35.071" W
43.00 m
8101201
71038
ADN

Download Data

Hourly Data (September 2017)
Hourly Data Report for September 12, 2017
Temp Definition
°C
Dew Point Temp Definition
°C
Rel Hum Definition
%
Wind Dir Definition
10's deg

Wind Spd Definition
km/h
Visibility Definition
km
Stn Press Definition
kPa
Hmdx Definition


Wind Chill Definition


Weather Definition


TIME
00:00 9.2 8.4 94 25 2   101.01     LegendNANA
01:00 8.4 7.6 95 0 1   100.98     LegendNANA
02:00 8.0 7.3 96 25 2   100.95     LegendNANA
03:00 7.7 7.1 96 0 1   100.84     LegendNANA
04:00 8.3 7.8 96 25 5   100.79     LegendNANA
05:00 7.4 6.8 96 0 1   100.76     LegendNANA
06:00 7.5 7.0 97 23 3   100.72     LegendNANA
07:00 7.7 7.2 97   0   100.68     LegendNANA
08:00 9.1 8.6 97 16 2   100.61     LegendNANA
09:00 13.3 12.0 92 25 7   100.61     LegendNANA
10:00 17.1 12.2 73 17 3   100.50     LegendNANA
11:00 19.9 11.0 56 19 4   100.45     LegendNANA
12:00 21.1 9.5 47 35 2   100.33     LegendNANA
13:00 23.1 10.6 45 17 3   100.22 25   LegendNANA
14:00 25.2 11.9 44 23 8   100.12 27   LegendNANA
15:00 25.4 8.8 35 24 12   100.02 26   LegendNANA
16:00 25.4 9.4 36 26 13   99.97 26   LegendNANA
17:00 22.7 9.0 42 28 9   99.97     LegendNANA
18:00 22.0 10.7 49 28 7   99.94     LegendNANA
19:00 20.0 11.2 57 29 4   99.98     LegendNANA
20:00 17.7 12.0 70 27 6   100.02     LegendNANA
21:00 14.9 11.6 81 27 4   100.03     LegendNANA
22:00 13.6 11.3 86 26 2   100.04     LegendNANA
23:00 12.7 11.2 90 27 1   100.06     LegendNANA

Notes on Data Quality.

Legend

  • E = Estimated
  • M = Missing
  • NA = Not Available
  • ‡ = Partner data that is not subject to review by the National Climate Archives
Date modified: